Torna al catalogo

STARLINK-36507

AttivoComunicazioniVLEO
NORAD 67409·PAYLOAD·🇺🇸 United States

Lanciato Jan 12, 2026 da Cape Canaveral Space Force Station

Loading…

Prossimi Passaggi (prossime 24 ore)

TLE

AggiornatoSource: CelesTrak SupGP

Epoca: Sep 14, 2026, 21:44 UTC

1 67409C 26005F   26257.90604167  .00039151  00000+0  14184-2 0  2579
2 67409  43.0006 249.6282 0001482 264.2982  33.7714 15.27551388    13

Traccia STARLINK-36507 in tempo reale con AllMySat

Download on the App Store